Weather Roundup
Issued by NWS Corpus Christi, TX

Home | Current Version | Previous Version | Text Only | Print | Product List | Glossary On
Versions: 1 2 3 4 5 6 7 8 9 10 11 12 13 14 15 16 17 18 19 20 21 22 23 24 25 26 27 28 29 30 31 32 33 34 35 36 37 38 39 40 41 42 43 44 45 46 47 48 49 50
000
ASUS44 KCRP 271710
HRRCRP

SOUTH TEXAS REGIONAL WEATHER ROUNDUP
NATIONAL WEATHER SERVICE CORPUS CHRISTI TX
1100 AM CST TUE JAN 27 2015


TXZ229>244-271800-
...CORPUS CHRISTI AREA OBSERVATIONS...

CITY           SKY/WX    TMP DP  RH WIND       PRES   REMARKS
CORPUS CHRISTI MOSUNNY   69  45  41 W13       30.23F
NAS CORPUS CHR MOSUNNY   71  42  35 W10       30.23S
ROCKPORT       SUNNY     68  41  37 VRB7      30.23S
KINGSVILLE NAS MOSUNNY   74  40  29 SW10      30.24S
ALICE          SUNNY     77  33  20 SW9       30.23S
FALFURRIAS     SUNNY     75  26  16 SW8       30.24S
$$

...VICTORIA AREA OBSERVATIONS...

CITY           SKY/WX    TMP DP  RH WIND       PRES   REMARKS
VICTORIA       SUNNY     72  41  32 W14       30.22S
BEEVILLE       FAIR      70  38  31 W9        30.23F
PLEASANTON     SUNNY     71  39  31 W5        30.24S
SAN ANTONIO    MOSUNNY   71  39  31 W6        30.22S
$$

...LAREDO AREA OBSERVATIONS...

CITY           SKY/WX    TMP DP  RH WIND       PRES   REMARKS
LAREDO         NOT AVBL
COTULLA        MOSUNNY   70  40  33 VRB3      30.24S
DEL RIO        SUNNY     63  41  44 W8        30.25S
MCALLEN        MOSUNNY   71  40  32 NW5       30.25S
HEBBRONVILLE   MOSUNNY   73  37  26 SW6       30.25S
$$

...OTHER TEXAS OBSERVATIONS...

CITY           SKY/WX    TMP DP  RH WIND       PRES   REMARKS
BROWNSVILLE    SUNNY     72  48  42 SW10      30.25S
HOUSTON        MOSUNNY   67  41  38 W5        30.17S
COL. STATION   SUNNY     64  41  42 VRB5      30.19R
AUSTIN         MOSUNNY   68  40  35 NW10      30.20S
WACO           SUNNY     65  41  41 N7        30.21R
FORT WORTH     MOSUNNY   63  39  41 N6        30.19R
WICHITA FALLS  SUNNY     61  40  45 NE3       30.20R
LUBBOCK        MOSUNNY   57  37  47 W8        30.27R
EL PASO        MOSUNNY   54  31  41 CALM      30.35R
$$

...MARINE OBSERVATIONS...

STATION/POSITION TIME  SKY/WX   TEMP    WIND        PRES    VSBY  WAVE   SWELL
                                AIR SEA DIR/SP/G                  HT/PER HT/PER
                 (UTC)          (F)     (DEG/KT/KT) (MB)    (MI)  (FT/S) (FT/S)
PORT ARANSAS     1700            67 58  250/ 12/ 13 1024.3F
BUOY 90 E PORT A 1700            67 68  280/ 17/ 21 1023.3R
BUOY 45 SE BAFFI 1700            63 67  250/ 12/ 12 1023.8R         2/ 3
BUOY 200 E PT IS 1700            71 72  320/ 12/ 14 1023.3R         2/ 5
BUOY 15 E GALVES 1700            57 56  260/  6/  8 1021.6R         1/ 4
$$


USA.gov is the U.S. government's official web portal to all federal, state and local government web resources and services.